Regional Weather Roundup
Issued by NWS

Home | Current Version | Previous Version | Text Only | Print | Product List | Glossary Off
Versions: 1 2 3 4 5 6 7 8 9 10 11 12 13 14 15 16 17 18 19 20 21 22 23 24 25 26 27 28 29 30 31 32 33 34 35 36 37 38 39 40 41 42 43 44 45 46 47 48 49 50

251
ASUS43 KIND 230259
RWRIN

WEATHER ROUNDUP FOR INDIANA
NATIONAL WEATHER SERVICE INDIANAPOLIS IN
1100 PM EDT SAT APR 22 2017

NOTE: "FAIR" INDICATES FEW OR NO CLOUDS BELOW 12,000 FEET WITH NO
SIGNIFICANT WEATHER AND/OR OBSTRUCTIONS TO VISIBILITY.

* - STATION DOES NOT REPORT WEATHER SUCH AS PRECIPITATION OR FOG.

+ - STATION NOT QUALITY CONTROLLED BY THE NATIONAL WEATHER SERVICE.
    USE DATA WITH CAUTION...ESPECIALLY DEWPOINT AND RELATIVE
    HUMIDITY OBSERVATIONS.

INZ001>003-010>013-019-020-230400-
NORTHWEST INDIANA

CITY           SKY/WX    TMP DP  RH WIND       PRES   REMARKS
GARY /AIRPORT/ CLEAR     45  34  65 CALM      30.17S
KNOX *+        CLEAR     39  12  33 N7        30.14S
MICHIGAN CITY+ CLEAR     41  32  70 CALM      30.16F
MONTICELLO +   CLEAR     47  28  48 N7        30.12S

$$

LMZ046-743>745-230400-
SOUTHERN LAKE MICHIGAN

STATION/POSITION TIME  TEMP    WIND        PRES    WAVE
                       AIR SEA DIR/SP/G            HT
                 (UTC) (F)     (DEG/KT/KT) (MB)    (FT)
BURNS HARBOR     0240   46      50/  8/  9 1021.7R
MICHIGAN CITY    0230   46      30/  8/  9   N/A

$$

INZ004-005-014>016-021>024-230400-
NORTH CENTRAL INDIANA

CITY           SKY/WX    TMP DP  RH WIND       PRES   REMARKS
GOSHEN         CLEAR     47  33  58 N6        30.13R
PERU/GRISSOM   CLEAR     45  36  70 NE6       30.09F
SOUTH BEND     CLEAR     43  26  51 N12       30.15S
WARSAW +       CLEAR     46  32  57 NW6       30.12S

$$

INZ006>009-017-018-025>027-230400-
NORTHEAST INDIANA

CITY           SKY/WX    TMP DP  RH WIND       PRES   REMARKS
ANGOLA *+      CLEAR     45  37  76 SE5       30.13R
FORT WAYNE     CLEAR     44  35  70 E5        30.13S
KENDALLVILLE + CLEAR     49  33  55 E6        30.13S

$$

INZ028-029-035-036-043>045-051>053-230400-
WEST CENTRAL INDIANA

CITY           SKY/WX    TMP DP  RH WIND       PRES   REMARKS
CRAWFORDSVL +  PTCLDY    43  35  74 NE5       30.10R
GREENCASTLE +  PTCLDY    46  34  61 NE5       30.10R
LAFAYETTE      CLEAR     47  33  58 N10       30.11R
TERRE HAUTE    PTCLDY    47  34  60 NE8       30.09R

$$

INZ030>032-037>040-046>048-054>057-064-065-230400-
CENTRAL INDIANA

CITY           SKY/WX    TMP DP  RH WIND       PRES   REMARKS
CP ATTERBURY + CLEAR     46  32  57 N6        30.09R
FRANKFORT +    CLOUDY    49  37  62 E6        30.12R
GREENWOOD *+   PTCLDY    49  29  45 NE6       30.09R
INDIANAPOLIS   CLOUDY    50  32  50 NE9       30.09R
-EAGLE CREEK   PTCLDY    50  35  56 E3        30.09R
KOKOMO +       CLEAR     45  36  70 NE7       30.12R
SHELBYVILLE    CLEAR     50  31  48 NE9       30.08R

$$

INZ033-034-041-042-049-050-058-059-230400-
EAST CENTRAL INDIANA

CITY           SKY/WX    TMP DP  RH WIND       PRES   REMARKS
MUNCIE         CLEAR     49  31  49 NE9       30.10S
RICHMOND +     CLEAR     43  34  70 NE9       30.09S

$$

INZ060-061-067>069-081>083-085>088-230400-
SOUTHWEST INDIANA

CITY           SKY/WX    TMP DP  RH WIND       PRES   REMARKS
EVANSVILLE     CLOUDY    53  41  63 NE12      30.04R
HUNTINGBURG *+ CLOUDY    51  40  65 NE8       30.04R

$$

INZ062-063-066-070>080-084-089>092-230400-
SOUTH CENTRAL AND SOUTHEAST INDIANA

CITY           SKY/WX    TMP DP  RH WIND       PRES   REMARKS
BLOOMINGTON    CLEAR     50  31  48 NE10      30.07R
MADISON *+     CLEAR     46  36  66 NE7       30.06S
SEYMOUR +      CLEAR     50  36  57 N9        30.06R

$$





USA.gov is the U.S. government's official web portal to all federal, state and local government web resources and services.